This is the latest recevied weather packets stored in our database for station/object N1TKS. If no packets are shown the sender has not sent any weather packets the latest 10 day(s).
| Time | Temp. | Humidity | Pressure | Rain* | Wind** | Luminosity | Snow |
|---|---|---|---|---|---|---|---|
| 1777142661 | 6.67° C | 88% | 1018.5 hPa | 0.76 mm | - | - | - |
| 1777142360 | 6.67° C | 88% | 1018.5 hPa | 0.76 mm | - | - | - |
| 1777142059 | 6.67° C | 88% | 1018.6 hPa | 0.76 mm | - | - | - |
| 1777141760 | 6.67° C | 88% | 1018.6 hPa | 1.02 mm | - | - | - |
| 1777141461 | 6.67° C | 88% | 1018.6 hPa | 1.02 mm | - | - | - |
| 1777140860 | 6.11° C | 88% | 1018.6 hPa | 1.27 mm | - | - | - |
| 1777140560 | 6.11° C | 88% | 1018.7 hPa | 1.52 mm | - | - | - |
| 1777140259 | 6.11° C | 88% | 1018.7 hPa | 1.52 mm | - | - | - |
| 1777139960 | 6.11° C | 87% | 1018.6 hPa | 1.52 mm | - | - | - |
| 1777139664 | 6.11° C | 87% | 1018.5 hPa | 1.52 mm | - | - | - |
| 1777139062 | 6.67° C | 87% | 1018.4 hPa | 2.03 mm | - | - | - |
| 1777138764 | 6.67° C | 87% | 1018.4 hPa | 1.78 mm | - | - | - |
| 1777138162 | 6.67° C | 87% | 1018.5 hPa | 1.78 mm | - | - | - |
| 1777137860 | 6.67° C | 87% | 1018.5 hPa | 1.52 mm | - | - | - |
| 1777137601 | 6.67° C | 86% | 1018.6 hPa | 1.27 mm | - | - | - |
| 1777137560 | 6.67° C | 86% | 1018.6 hPa | 1.27 mm | - | - | - |
| 1777136959 | 7.22° C | 86% | 1018.8 hPa | 1.27 mm | - | - | - |
| 1777136660 | 7.22° C | 86% | 1018.9 hPa | 1.27 mm | - | - | - |
| 1777136464 | 7.22° C | 85% | 1019.1 hPa | 1.02 mm | - | - | - |
| 1777136361 | 7.22° C | 85% | 1019.1 hPa | 1.02 mm | - | - | - |
| 1777136060 | 7.22° C | 85% | 1019.1 hPa | 1.02 mm | - | - | - |
| 1777135760 | 7.22° C | 84% | 1019.2 hPa | 0.76 mm | - | - | - |
| 1777135460 | 7.22° C | 84% | 1019.2 hPa | 0.51 mm | - | - | - |
| 1777135160 | 7.78° C | 84% | 1019 hPa | 0.51 mm | - | - | - |
| 1777134860 | 7.78° C | 83% | 1019 hPa | 0.51 mm | - | - | - |
* Rain latest hour (hover to see other rain measurements)
** Current wind speed in m/s (hover to see current wind gust speed)